NOAA NWS Hourly Roundups by Site

Regional Weather Roundup for Seattle, WA

To Select Another Site Choose from List

Select Site:  

000
ASUS46 KSEW 221220
RWRWA

WASHINGTON REGIONAL WEATHER ROUNDUP
NATIONAL WEATHER SERVICE SEATTLE WA
500 AM PDT THU OCT 22 2020

NOTE:"FAIR" INDICATES FEW OR NO CLOUDS BELOW 12,000 FEET WITH NO
SIGNIFICANT WEATHER AND/OR OBSTRUCTIONS TO VISIBILITY.

WAZ507-509-555>559-221300-
SEATTLE, TACOMA, EVERETT, AND VICINITY

CITY           SKY/WX    TMP DP  RH WIND       PRES   REMARKS
EVERETT        PTCLDY    39  37  92 CALM      30.34R
6HR MIN TEMP:  38; 6HR MAX TEMP:  43;

BOEING FIELD   PTCLDY    40  37  89 S5        30.35R
6HR MIN TEMP:  39; 6HR MAX TEMP:  44;

RENTON         MOCLDY    39  37  92 CALM      30.35S
6HR MIN TEMP:  38; 6HR MAX TEMP:  43;

SEATAC AIRPORT MOCLDY    41  38  89 SE5       30.34R
6HR MIN TEMP:  40; 6HR MAX TEMP:  45;

JBLM-MCCHORD   CLEAR     32  30  93 CALM      30.34S FOG
6HR MIN TEMP:  31; 6HR MAX TEMP:  38;

PUYALLUP       CLOUDY    32  32 100 CALM      30.34R
BREMERTON      MOCLDY    32  32 100 CALM      30.34S
6HR MIN TEMP:  31; 6HR MAX TEMP:  37;

JBLM-FT LEWIS  CLEAR     31  31 100 SE5       30.33S
6HR MIN TEMP:  31; 6HR MAX TEMP:  38;

TACOMA NARROWS CLOUDY    40  38  93 S5        30.35R
6HR MIN TEMP:  39; 6HR MAX TEMP:  46;

$$

WAZ001-503-506-510-514-515-221300-
NORTH INTERIOR

CITY           SKY/WX    TMP DP  RH WIND       PRES   REMARKS
BELLINGHAM     MOCLDY    38  35  89 CALM      30.35R
6HR MIN TEMP:  35; 6HR MAX TEMP:  42;

FRIDAY HARBOR  CLEAR     41  38  89 VRB3      30.35R
6HR MIN TEMP:  36; 6HR MAX TEMP:  42;

EASTSOUND      CLEAR     45  41  87 CALM      30.34R
PORT ANGELES   NOT AVBL
EDIZ HOOK      FAIR     N/A N/A N/A S3        30.35S
PORT TOWNSEND  FAIR      28  28 100 CALM      30.34S
NAS WHIDBEY    PTCLDY    39  37  92 SE7       30.39R
6HR MIN TEMP:  39; 6HR MAX TEMP:  42;

ARLINGTON      FOG       30  30 100 CALM      30.36S VSB 1/2
6HR MIN TEMP:  30; 6HR MAX TEMP:  38; 6HR PCP:  0.03;

BURLINGTON     CLOUDY    36  34  93 CALM      30.35S
$$

WAZ020-022-039-040-504-511-512-221300-
SOUTHWEST INTERIOR

CITY           SKY/WX    TMP DP  RH WIND       PRES   REMARKS
SHELTON        MOCLDY    29  29 100 CALM      30.32S
6HR MIN TEMP:  29; 6HR MAX TEMP:  37;

OLYMPIA        FOG       35  35 100 CALM      30.35S VSB 1/4
6HR MIN TEMP:  34; 6HR MAX TEMP:  37;

CHEHALIS       FOG       36  36 100 CALM      30.36R VSB 1/4
KELSO          MOCLDY    36  35  96 CALM      30.36R
6HR MIN TEMP:  35; 6HR MAX TEMP:  40; 6HR PCP:  0.01;

VANCOUVER      CLEAR     36  31  82 CALM      30.33S
6HR MIN TEMP:  35; 6HR MAX TEMP:  44;

SCAPPOOSE, OR  CLEAR     35  34  96 NW5       30.33S
6HR MIN TEMP:  34; 6HR MAX TEMP:  42;

PORTLAND, OR   CLEAR     37  34  89 CALM      30.34S
6HR MIN TEMP:  37; 6HR MAX TEMP:  46;

$$

WAZ021-516-517-221300-
WASHINGTON COAST

CITY           SKY/WX    TMP DP  RH WIND       PRES   REMARKS
FORKS          CLEAR     36  34  92 E6        30.33S
6HR MIN TEMP:  35; 6HR MAX TEMP:  39;

HOQUIAM        FOG       36  32  85 E8        30.34S VSB 3/4
6HR MIN TEMP:  36; 6HR MAX TEMP:  42;

ASTORIA, OR    CLEAR     35  34  96 SE3       30.33R
6HR MIN TEMP:  35; 6HR MAX TEMP:  42;

$$

WAZ019-023-024-040-567>569-221300-
CASCADE MOUNTAINS AND COLUMBIA GORGE

CITY           SKY/WX    TMP DP  RH WIND       PRES   REMARKS
STAMPEDE PASS  PTCLDY    29  27  92 CALM      30.22F
6HR MIN TEMP:  29; 6HR MAX TEMP:  31;

TROUTDALE, OR  MOCLDY    37  32  82 CALM      30.34R
6HR MIN TEMP:  36; 6HR MAX TEMP:  45;

HOOD RIVER, OR SUNNY     32  32 100 S3        30.33R
THE DALLES, OR CLEAR     37  33  85 CALM      30.32R
6HR MIN TEMP:  36; 6HR MAX TEMP:  47;

$$

WAZ026-027-041>044-520-521-221300-
EAST SLOPES

CITY           SKY/WX    TMP DP  RH WIND       PRES   REMARKS
OMAK           CLEAR     31  21  66 NW7       30.31S
6HR MIN TEMP:  30; 6HR MAX TEMP:  40;

WENATCHEE      CLOUDY    38  31  76 W8        30.30R
6HR MIN TEMP:  37; 6HR MAX TEMP:  44;

ELLENSBURG     MOCLDY    30  25  81 CALM      30.29R
6HR MIN TEMP:  27; 6HR MAX TEMP:  39;

YAKIMA         CLOUDY    30  24  78 W5        30.32R
6HR MIN TEMP:  29; 6HR MAX TEMP:  42;

SUNNYSIDE ARPT CLOUDY    39  29  69 W8        30.30R
6HR MIN TEMP:  39; 6HR MAX TEMP:  49;

YAKIMA TC      PTSUNNY   34  26  72 CALM      30.29R
6HR MIN TEMP:  33; 6HR MAX TEMP:  40;

$$

WAZ028-034-035-221300-
COLUMBIA BASIN

CITY           SKY/WX    TMP DP  RH WIND       PRES   REMARKS
EPHRATA        MOCLDY    40  20  44 N15       30.28R
6HR MIN TEMP:  35; 6HR MAX TEMP:  40;

MOSES LAKE     PTCLDY    33  23  66 NE7       30.29R
6HR MIN TEMP:  29; 6HR MAX TEMP:  37;

PASCO          CLEAR     32  27  81 CALM      30.32R
6HR MIN TEMP:  30; 6HR MAX TEMP:  42;

RICHLAND ARPT  MOSUNNY   36  25  65 CALM      30.32
6HR MIN TEMP:  35; 6HR MAX TEMP:  45;

HERMISTON, OR  CLEAR     32  28  85 SE6       30.29R
6HR MIN TEMP:  32; 6HR MAX TEMP:  45;

$$

WAZ036>038-221300-
NORTHEAST WASHINGTON

CITY           SKY/WX    TMP DP  RH WIND       PRES   REMARKS
SPOKANE GEIGER PTCLDY    32  26  78 E6        30.24R
6HR MIN TEMP:  28; 6HR MAX TEMP:  36;

SPOKANE FELTS  MOCLDY    32  29  88 CALM      30.26R
6HR MIN TEMP:  29; 6HR MAX TEMP:  34;

FAIRCHILD AFB  CLEAR     26  26 100 CALM      30.23R
6HR MIN TEMP:  25; 6HR MAX TEMP:  31;

COEURDALENE,ID CLOUDY    28  27  96 N6        30.26R
6HR MIN TEMP:  26; 6HR MAX TEMP:  30;

DEER PARK      CLEAR     25  22  88 W3        30.25R
6HR MIN TEMP:  23; 6HR MAX TEMP:  31;

$$

WAZ029>033-221300-
SOUTHEAST WASHINGTON

CITY           SKY/WX    TMP DP  RH WIND       PRES   REMARKS
PULLMAN        CLEAR     30  27  88 CALM      30.24R
6HR MIN TEMP:  28; 6HR MAX TEMP:  34;

LEWISTON, ID   FOG       31  30  96 CALM      30.27R VSB 1
6HR MIN TEMP:  32; 6HR MAX TEMP:  40;

WALLA WALLA    CLEAR     34  30  85 SE6       30.27R
6HR MIN TEMP:  34; 6HR MAX TEMP:  41;

PENDLETON, OR  CLEAR     33  31  92 CALM      30.27R
6HR MIN TEMP:  31; 6HR MAX TEMP:  39;

$$


 

View Past Reports for Seattle, WA.

Products Courtesy of NOAA-NWS
NWS Information Parsing Script by Ken True at Saratoga Weather - Script by SE Lincoln Weather.